Showing default

FLOCK 4BE 10, 60503

Orbit data source: Space-Track

FLOCK 4BE 10, 60503 is a payload satellite owned by Planet (US) in SSO that was launched on Fri, 16 Aug 2024 UTC via an FALCON 9 launch vehicle from the Air Force Western Test Range (AFWTR). Payload-class satellites include a variety of spacecraft equipped with specific instruments for various scientific and technological missions. These include communications satellites like Starlink; space stations such as the ISS; scientific satellites like the Hubble; Earth observation satellites from companies like Planet Labs, Umbra, and HawkEye 360; GPS; miniature CubeSats for education and research; and military/defense satellites.

Loading next visibility...
Identifier
60503, 2024-149AM
Orbit
SSO
Last TLE update
6 hours ago
Origin
Manufacturer
Planet
Mission
Operational Commercial Imaging
Bus & Motor
CUBESAT 3U, Unknown motor
Mass
5.7 kg wet, 5.7 kg dry
Launch date (UTC)
2024-08-16 (11 months ago)
Launch vehicle
FALCON 9
Launch site
Air Force Western Test Range (AFWTR)
Object type
Payload
Rocket body
Debris
Shape & HBR
Box + 2 Pan, 0.1 m
Radar Cross Section
0.035 m², Medium (>0.1 m² and < 1m²)

Expand to show TLE details & history

TLE from 6 hours ago
0 FLOCK 4BE 10
1 60503U 24149AM  25200.22004427  .00007213  00000-0  26390-3 0  9990
2 60503  97.4094 278.3530 0004156  46.2584 313.8999 15.28351196 51225
Epoch: 2025-07-19T05:16Z
TLE epoch observation values (Epoch: 2025-07-19T05:16:51.824Z)
Latitude
-0.00006°
Longitude
-98.12321°
Altitude
481.866 km
Speed
7.626 km/s
True Right ascension
18h 33m 24s
True Declination
0° 00' 00"
Sunlit
Object was in full shadow at epoch
Visualization orbit readout
Latitude
-13.8325°
Longitude
80.28237°
Altitude
489.069 km
Speed
7.618 km/s
Apparent Right ascension
08h 35m 05s
Apparent Declination
-32° 13' 43"
Sunlit
Object is in daylight
Visualization observer readout
Local Sidereal Time
23:39:52
Azimuth
93.123° ESE
Elevation
-52.307°
Doppler factor
1
Orbital elements
Apogee altitude
480.545 km
Perigee altitude
474.846 km
Semi-major axis
6,855.833 km
Eccentricity
0.00042
Inclination
97.4094°
RAAN
278.353°
Arg. of periapsis
46.2584°
True anomaly
313.86557°
Mean anomaly
313.8999°
Eccentric anomaly
313.88274°
Mean motion
3.82343 °/min
Orbital period
94.16 mins
BSTAR
0.0002639
Loading maneuver chart data...
Loading SW <> Apogee altitude chart data...
Loading historical data...
Loading historical data...
Loading historical data...
Loading historical data...
Loading historical data...
Loading historical data...
Loading historical data...
|